Orbital Elements at Epoch 2459200.5 (2020-Dec-17.0) TDB
Reference: JPL 22 (heliocentric ecliptic J2000)
Element | Value | Uncertainty (1-sigma) | Units |
e | .003400172052282891 | 4.1411e-08 | |
a | 3.121751082438755 | 2.4944e-08 | au |
q | 3.111136591654063 | 1.2639e-07 | au |
i | 11.80973245883708 | 3.9797e-06 | deg |
node | 121.0147896546782 | 2.1706e-05 | deg |
peri | 68.38296245642728 | 0.00063768 | deg |
M | 216.3313791271432 | 0.00063948 | deg |
tp | 2460004.498531293544 (2023-Feb-28.99853129) | 0.0035819 | TDB |
period | 2014.632489037552 5.52 | 2.4146e-05 6.611e-08 | d yr |
n | .1786926409451395 | 2.1417e-09 | deg/d |
Q | 3.132365573223447 | 2.5029e-08 | au |
|
| | Orbit Determination Parameters
Additional Information
|